Tracking 19279 objects as of 14-Nov-2018
HD Live streaming from Space Station
objects crossing your sky now

COSMOS 2499

Track COSMOS 2499 now!
10-day predictions
COSMOS 2499 is classified as:


NORAD ID: 39765
Int'l Code: 2014-028E
Perigee: 1,157.6 km
Apogee: 1,512.8 km
Inclination: 82.4 °
Period: 112.2 minutes
Semi major axis: 7706 km
RCS: Unknown
Launch date: May 23, 2014
Source: Commonwealth of Independent States (former USSR) (CIS)
Launch site: PLESETSK MISSILE AND SPACE COMPLEX (PKMTR)
aabbcc
Your satellite tracking list
Your tracking list is empty




NASA's NSSDC Master Catalog

Two Line Element Set (TLE):
1 39765U 14028E   18317.93557196 +.00000038 +00000-0 +10000-3 0  9995
2 39765 082.4384 323.9905 0230471 030.0937 331.3177 12.83340613209761
Source of the keplerian elements: Caltech